Weather History for Lihue, HI

Change the Weather History Date:

Monday, April 29, 2013

  Actual Average Record
Temperature  
Mean Temperature 77 °F 75 °F  
Max Temperature 81 °F 80 °F 85 °F (1978)
Min Temperature 73 °F 69 °F 59 °F (1995)
Degree Days  
Heating Degree Days 0 0  
Month to date heating degree days 0 0  
Since 1 July heating degree days 0 0  
Cooling Degree Days 12 10  
Month to date cooling degree days 211 261  
Year to date cooling degree days 751 895  
Growing Degree Days 26 (Base 50)    
Moisture  
Dew Point 70 °F    
Average Humidity 78    
Maximum Humidity 87    
Minimum Humidity 69    
Precipitation  
Precipitation 0.04 in 0.06 in 0.36 in (1965)
Month to date precipitation 2.92 2.18  
Year to date precipitation 14.09 13.70  
Snow  
Snow 0.00 in - - ()
Month to date snowfall 0.0  
Since 1 July snowfall 0.0  
Snow Depth 0.00 in    
Sea Level Pressure  
Sea Level Pressure 29.94 in    
Wind  
Wind Speed 11 mph (SSW)    
Max Wind Speed 18 mph    
Max Gust Speed 24 mph    
Visibility 10 miles    
Events Rain    
T = Trace of Precipitation, MM = Missing Value Source: NWS Daily Summary

Daily Weather History Graph

Daily Weather History Graph

Search for Another Location

Airport:

Trip Planner

Search our weather history database for the weather conditions in past years. The results will help you decide how hot, cold, wet, or windy it might be!

Date:

Astronomy

Apr. 29, 2013 Rise Set
Actual Time 6:06 AM HST 7:02 PM HST
Civil Twilight 5:43 AM HST 7:26 PM HST
Nautical Twilight 5:15 AM HST 7:53 PM HST
Astronomical Twilight 4:47 AM HST 8:21 PM HST
Moon 11:28 PM HST (4/29) 9:51 AM HST (4/29)
Length of Visible Light 13h 42m
Length of Day
12h 56m
Waning Gibbous, 78% of the Moon is Illuminated
Apr 29
Waning Gibbous
May 2
Last Quarter
May 9
New
May 17
First Quarter
May 24
Full

Hourly Weather History & Observations

Time (HST) Temp. Heat Index Dew Point Humidity Pressure Visibility Wind Dir Wind Speed Gust Speed Precip Events Conditions
12:14 AM 73.4 °F - 69.8 °F 88% 29.98 in 10.0 mi SW 8.1 mph - N/A   Mostly Cloudy
12:32 AM 73.4 °F - 69.8 °F 88% 29.98 in 10.0 mi SSW 10.4 mph - N/A   Scattered Clouds
12:53 AM 73.9 °F - 69.1 °F 85% 29.96 in 10.0 mi South 12.7 mph - N/A   Scattered Clouds
1:53 AM 73.0 °F - 69.1 °F 87% 29.94 in 10.0 mi SSW 10.4 mph - 0.00 in   Scattered Clouds
2:53 AM 73.9 °F - 70.0 °F 87% 29.93 in 10.0 mi SSW 11.5 mph - N/A   Overcast
3:45 AM 73.4 °F - 69.8 °F 88% 29.93 in 10.0 mi South 6.9 mph - N/A   Overcast
3:53 AM 73.9 °F - 70.0 °F 87% 29.92 in 10.0 mi South 10.4 mph - N/A   Overcast
4:19 AM 73.4 °F - 69.8 °F 88% 29.93 in 7.0 mi SSW 8.1 mph 18.4 mph 0.01 in Rain Light Rain
4:37 AM 73.4 °F - 69.8 °F 88% 29.93 in 10.0 mi SSW 6.9 mph - 0.02 in Rain Light Rain
4:53 AM 73.0 °F - 69.1 °F 87% 29.92 in 10.0 mi SW 6.9 mph 17.3 mph 0.02 in   Overcast
5:53 AM 73.0 °F - 69.1 °F 87% 29.93 in 10.0 mi SSW 9.2 mph - 0.02 in   Mostly Cloudy
6:53 AM 73.0 °F - 69.1 °F 87% 29.94 in 10.0 mi SSW 8.1 mph - N/A   Partly Cloudy
7:53 AM 73.9 °F - 70.0 °F 87% 29.95 in 10.0 mi South 11.5 mph - N/A   Scattered Clouds
8:53 AM 77.0 °F - 70.0 °F 79% 29.95 in 10.0 mi South 11.5 mph - N/A   Partly Cloudy
9:53 AM 80.1 °F 83.2 °F 70.0 °F 71% 29.96 in 10.0 mi SSW 10.4 mph 17.3 mph N/A   Clear
10:53 AM 79.0 °F - 69.1 °F 72% 29.95 in 10.0 mi South 16.1 mph - N/A   Partly Cloudy
11:53 AM 80.1 °F 83.2 °F 70.0 °F 71% 29.94 in 10.0 mi South 15.0 mph 20.7 mph N/A   Clear
12:53 PM 80.1 °F 83.2 °F 70.0 °F 71% 29.93 in 10.0 mi SSW 13.8 mph 21.9 mph N/A   Clear
1:53 PM 79.0 °F - 70.0 °F 74% 29.92 in 10.0 mi South 15.0 mph - N/A   Clear
2:53 PM 80.1 °F 83.6 °F 71.1 °F 74% 29.90 in 10.0 mi South 11.5 mph - N/A   Partly Cloudy
3:53 PM 79.0 °F - 70.0 °F 74% 29.90 in 10.0 mi South 11.5 mph - N/A   Clear
4:53 PM 78.1 °F - 70.0 °F 76% 29.90 in 10.0 mi South 12.7 mph - N/A   Clear
5:53 PM 77.0 °F - 69.1 °F 76% 29.90 in 10.0 mi South 10.4 mph - N/A   Clear
6:53 PM 75.0 °F - 70.0 °F 84% 29.93 in 10.0 mi South 10.4 mph - N/A   Clear
7:53 PM 73.0 °F - 71.1 °F 93% 29.95 in 10.0 mi South 3.5 mph - 0.01 in Rain Light Rain
8:53 PM 73.9 °F - 70.0 °F 87% 29.96 in 10.0 mi SSW 5.8 mph - 0.00 in   Mostly Cloudy
9:53 PM 73.9 °F - 70.0 °F 87% 29.97 in 10.0 mi SSW 6.9 mph - N/A   Scattered Clouds
10:53 PM 73.9 °F - 70.0 °F 87% 29.97 in 10.0 mi SSW 3.5 mph - 0.00 in   Mostly Cloudy
11:53 PM 73.9 °F - 70.0 °F 87% 29.97 in 10.0 mi WNW 3.5 mph - N/A   Overcast